Regional Weather Roundup
Issued by NWS Wakefield, VA

Home | Current Version | Previous Version | Graphics & Text | Print | Product List | Glossary On
Versions: 1 2 3 4 5 6 7 8 9 10 11 12 13 14 15 16 17 18 19 20 21 22 23 24 25 26 27 28 29
000
ASUS41 KAKQ 242315
RWRAKQ

REGIONAL WEATHER ROUNDUP
NATIONAL WEATHER SERVICE WAKEFIELD VA
700 PM EDT WED AUG 24 2016

Note: "fair" indicates few or no clouds below 12,000 feet with no
significant weather and/or obstructions to visibility. * = Denotes
station may not report precipitation (e.g., rain,snow,etc.),
thunder or fog.

VAZ042-051-052>054-056-250000-
NORTHERN VIRGINIA

CITY           SKY/WX    TMP DP  RH WIND       PRES   REMARKS
WASH NATIONAL  MOCLDY    83  66  56 S12       30.17F
DULLES         PTCLDY    81  64  56 S10       30.16F
FORT BELVOIR   CLEAR     80  66  62 SE7       30.17F
QUANTICO       CLEAR     83  67  58 SE9       30.17F
FREDERICKSBRG*   N/A     83  68  59 SE6       30.16F
STAFFORD*      CLEAR     81  63  53 S6        30.21S
WARRENTON      CLEAR     82  62  50 S5        30.17S
CULPEPER*      CLEAR     82  68  62 CALM      30.17S
MANASSAS*      CLEAR     82  68  61 S7        30.17F
LEESBURG*      PTCLDY    84  70  61 S15       30.17F
WINCHESTER     CLEAR     81  68  65 SE9       30.16S
FRONT ROYAL*   FAIR      81  68  65 S3        30.15S
LURAY*         FAIR      82  66  57 S5        30.17R
$$

VAZ048-049-060>072-079>083-250000-
CENTRAL AND SOUTH CENTRAL VIRGINIA

CITY           SKY/WX    TMP DP  RH WIND       PRES   REMARKS
RICHMOND       PTCLDY    81  60  48 S7        30.18F
CHESTERFIELD*  FAIR      82  55  39 S6        30.19F
PETERSBURG*    PTCLDY    83  63  50 S3        30.19S
HANOVER        CLEAR     81  62  52 SE3       30.19F
TAPPAHANNOCK*  CLEAR     80  61  51 SE5       30.19F
QUINTON*       FAIR      83  63  49 SE5       30.18F
CHARLOTTSVILLE MOCLDY    83  67  58 S9        30.17F
GORDONSVILLE*  NOT AVBL
ORANGE*          N/A     82  68  61 CALM      30.19F
LOUISA*        CLEAR     84  72  65 CALM      30.17F
BUMPASS*       FAIR      81  69  65 CALM      30.18S
FARMVILLE*     CLEAR     82  66  58 CALM      30.17S
CREWE*         FAIR      81  66  60 CALM      30.19F
FORT PICKETT*  NOT AVBL
CHASE CITY*    FAIR      82  61  48 S3        30.20S
CLARKSVILLE*   FAIR      81  64  57 SE3       30.19F
SOUTH HILL*    CLEAR     79  66  64 S3        30.25F
LAWRENCEVILLE* FAIR      81  66  60 S3        30.19F
EMPORIA*       CLOUDY    81  64  57 E3        30.21S
$$

VAZ088>098-250000-
SOUTHEAST VIRGINIA

CITY           SKY/WX    TMP DP  RH WIND       PRES   REMARKS
NORFOLK        CLEAR     78  65  63 E8        30.21F
VIRGINIA BEACH PTCLDY    82  63  52 E8        30.20F
NORFOLK NAVAL  PTCLDY    78  64  61 E9        30.21F
WEST POINT*    CLEAR     79  57  46 SE7       30.21S
SALUDA*        FAIR      79  62  56 SE5       30.20F
NEWPORT NEWS   CLEAR     78  59  51 E9        30.20F
LANGLEY AFB    CLEAR     78  62  58 SE8       30.20F
FORT EUSTIS    CLEAR     82  60  46 SE6       30.17F
WILLIAMSBURG*  CLEAR     82  63  51 SE7       30.20F
HR EXEC AP*    FAIR      81  63  54 SE8       30.22S
FRANKLIN*      PTCLDY    79  62  55 CALM      30.20S
US460-WAKEFLD  CLEAR     77  61  57 CALM      30.19F
$$

VAZ020-022-025-037-045-250000-
WEST CENTRAL AND SOUTHWEST VIRGINIA

CITY           SKY/WX    TMP DP  RH WIND       PRES   REMARKS
STAUNTON*      SUNNY     78  67  68 S7        30.21R
WAYNESBORO*    MOCLDY    79  66  64 S9        30.21S
HOT SPRINGS VA PTSUNNY   71  64  78 S3        30.33R
LYNCHBURG      SUNNY     79  67  66 S8        30.21F
DANVILLE       SUNNY     80  67  64 S3        30.19F
SOUTH BOSTON*  FAIR      82  65  58 SE3       30.19S
MARTINSVILLE   MOSUNNY   79  69  73 CALM      30.23S
ROANOKE        PTSUNNY   80  69  69 S7        30.22S
BLACKSBURG     MOSUNNY   78  68  72 CALM      30.29R
DUBLIN*        SUNNY     80  66  61 CALM      30.26S
MARION*        PTSUNNY   78  67  68 SW5       30.30S
HILLSVILLE*    CLOUDY    73  69  89 SE3       30.28F
RICHLANDS*     FAIR      76  69  78 CALM      30.28S
WISE*          MOSUNNY   77  61  57 S6        30.29S
ABINGDON*      SUNNY     81  67  63 SW3       30.25S
$$

MDZ021>025-VAZ099-100-250000-
SOUTHERN MARYLAND AND THE DELMARVA PENINSULA

CITY           SKY/WX    TMP DP  RH WIND       PRES   REMARKS
PATUXENT RIVER PTCLDY    78  58  49 S7        30.19F
BAY BRIDGE APT PTCLDY    81  63  54 S7        30.18F
LEONARDTOWN    CLEAR     77  57  50 SE3       30.21F
DOVER          CLEAR     77  66  68 SE8       30.18F
GEORGETOWN     CLEAR     76  61  59 S7        30.21S
EASTON         CLEAR     82  66  57 S7        30.23F
CAMBRIDGE      CLEAR     77  61  57 S3        30.19F
SALISBURY      CLEAR     77  63  61 S7        30.21S
OCEAN CITY     CLEAR     77  62  59 S5        30.22S
WALLOPS ISLAND CLEAR     76  56  49 S5        30.23S
ACCOMACK*      CLEAR     76  61  58 SE6       30.22S
$$

NCZ012>017-030>032-250000-
NORTH CENTRAL AND EASTERN NORTH CAROLINA

CITY           SKY/WX    TMP DP  RH WIND       PRES   REMARKS
ROANOKE RAPIDS FAIR      79  64  61 CALM      30.20S
RALEIGH        MOCLDY    83  63  50 E3        30.20F
ELIZABETH CITY CLEAR     79  66  64 E9        30.21S
AHOSKIE*       CLOUDY    75  68  77 CALM      30.20F
EDENTON*       CLEAR     79  68  67 E6        30.21S
CURRITUCK*       N/A     79  66  64 CALM      30.22S
KILL DEVIL HLS MOCLDY    81  74  79 NE5       30.20S
MANTEO         MOCLDY    79  71  78 NE6       30.21S
CAPE HATTERAS  PTCLDY    79  68  69 E3        30.19S
TARBORO*       FAIR      79  72  78 CALM      30.20F
GOLDSBORO      PTCLDY    81  61  49 NE8       30.19S
WASHINGTON     CLOUDY    78  64  63 CALM      30.20S
GREENVILLE     PTCLDY    82  63  51 E5        30.21S
NEW BERN       MOCLDY    81  61  50 N6        30.20F
WILMINGTON     PTCLDY    83  62  49 NE7       30.19S
$$

VAZ048-250000-
ELSEWHERE

CITY           SKY/WX    TMP DP  RH WIND       PRES   REMARKS
HARRISBURG PA  MOCLDY    82  67  60 S7        30.14F
BALTIMORE      CLOUDY    80  65  59 SE8       30.17F
ANNAPOLIS      CLEAR     80  65  59 S10       30.18F
ANDREWS AFB    CLEAR     79  65  62 S10       30.17F
PHILADELPHIA   MOCLDY    82  62  50 SW12      30.18F
HENDERSON NC   PTCLDY    77  63  61 CALM      30.21S
GREENSBORO     CLOUDY    82  65  56 SE7       30.20S
ROCKY MOUNT    CLOUDY    80  67  64 CALM      30.20F
$$

VAZ100-250000-
MARINE

STATION/POSITION TIME  TEMP    WIND        PRES    WAVE   SWELL
                       AIR SEA DIR/SP/G            HT/PER HT/PER
                 (UTC) (F)     (DEG/KT/KT) (MB)    (FT/S) (FT/S)
BRANDYWINE LGT   2200   74     180/ 13/ 16   N/A
CAPE MAY NJ      2200   76 74  160/  8/ 11 1022.6F
LEWES DE         2200   78 76  170/  7/ 10 1023.0F
OCEAN-CITY-INLET 2200   77 74  200/  5/  6 1023.8F
WACHAPREAGUE VA  2200   77 83  140/  5/  7 1023.6F
THOMAS POINT MD  2300   80 82  170/ 15/ 16 1023.1F
GOOSES REEF MD   2200   80 82  170/ 12/ 14 1023.2F   2/ 3
COVE POINT MD    2200   79     180/ 12/ 13 1023.3F
SOLOMONS ISLAND  2200   80 84  150/ 10/ 11   N/A
BISHOPS HEAD MD  2200   80 85  150/  8/ 10 1023.3F
PINEY POINT MD   2200          160/ 13/ 14   N/A
POTOMAC MD       2200   81 84  170/ 10/ 12 1022.0F   1/ 2
CAMBRIDGE MD     2200   83 83  150/  3/ 11 1022.0F
LEWISETTA VA     2200   80 83  170/  8/  9 1022.5F
RAPPAHANNOCK LGT 2200          130/  6/  7 1023.9F
STINGRAY PT      2200   80 84  110/ 10/ 12 1023.6F
YORK RVR RNG VA  2200   78     140/ 10/ 12 1022.7F
YORKTOWN VA      2200   79 83  120/ 10/ 12 1022.7F
JAMESTOWN VA     2200   81 86  140/ 10/ 12   N/A
DOMINION TERM VA 2200   78      70/  9/ 13 1023.2F
KIPTOPEKE VA     2200      78  150/  6/  9   N/A
CHES BAY BRIDGE  2200   77 77   70/  9/ 10 1023.2F
CAPE HENRY VA    2200   77      80/  8/  9   N/A
WILLOUBY STN VA  2200   77      70/  8/  9   N/A
CAPE HENRY BUOY  2212      79                N/A     2/12   2/12
1ST LANDING BUOY 2200   78 79   90/  8/ 10 1023.2F   1/ 3
CAPE CHARLES BUO 2226      78                N/A     2/12   2/12
OFFSHORE WE BUOY 2221      80                N/A     2/12   2/12
64NM E OF VA BCH 2250   79 81   90/  6/  8 1022.8F   3/11   2/11
DUCK PIER NC     2200   78 79   40/  6/  8 1022.4F
44100 DUCK FRF   2205      81                N/A     2/12   2/12
44056 DUCK FRF   2211      77                N/A     2/12   2/12
OREGON INLET NC  2200   80 78   30/  8/ 10 1022.7F
HATTERAS NC      2200   80 79  100/  5/  8 1022.2F
DIAMOND SHLS NC  2250   81 85   80/  8/ 12 1022.3S   3/ 7   3/ 7
CAPE LOOKOUT NC  2300   78     360/  9/ 10 1021.7F
$$




USA.gov is the U.S. government's official web portal to all federal, state and local government web resources and services.